FW2021 Weather Reports


Display with metric or nautical units.
time (UTC)temp
F
wind
direction
speed
MPH
gust
MPH
rain 1hr
in
rain 24hr
in
rain mn
in
humidity
%
barometer
mb
20260507084836 50 130 0.0 3.0 0.00 0.00 0.00 75 1021.6
20260507084337 50 128 0.0 3.0 0.00 0.00 0.00 75 1021.5
20260507083835 50 142 0.0 3.0 0.00 0.00 0.00 75 1021.5
20260507082836 50 143 0.0 3.0 0.00 0.00 0.00 75 1021.5
20260507082335 50 125 0.0 2.0 0.00 0.00 0.00 75 1021.5
20260507081835 50 178 0.0 2.0 0.00 0.00 0.00 75 1021.5
20260507081333 50 178 0.0 3.0 0.00 0.00 0.00 75 1021.5
20260507080831 50 147 0.0 3.0 0.00 0.00 0.00 75 1021.5
20260507080331 51 147 0.0 2.0 0.00 0.00 0.00 75 1021.4
20260507075330 51 144 0.0 3.0 0.00 0.00 0.00 75 1021.4
20260507074830 51 159 1.0 3.0 0.00 0.00 0.00 75 1021.3
20260507074330 51 185 1.0 3.0 0.00 0.00 0.00 75 1021.4
20260507073829 51 213 1.0 2.0 0.00 0.00 0.00 75 1021.5
20260507073325 51 213 1.0 6.0 0.00 0.00 0.00 75 1021.5
20260507072313 51 182 1.0 4.0 0.00 0.00 0.00 76 1021.5
20260507071806 51 184 1.0 4.0 0.00 0.00 0.00 75 1021.5
20260507071303 52 156 0.0 4.0 0.00 0.00 0.00 76 1021.4
20260507070804 52 150 0.0 4.0 0.00 0.00 0.00 76 1021.3
20260507070302 52 98 0.0 3.0 0.00 0.00 0.00 76 1021.4
20260507065801 52 216 0.0 3.0 0.00 0.00 0.00 76 1021.3
20260507064759 52 189 0.0 3.0 0.00 0.00 0.00 76 1021.4
20260507064300 52 150 0.0 0.0 0.00 0.00 0.00 76 1021.4
20260507063800 52 150 0.0 0.0 0.00 0.00 0.00 76 1021.5
20260507063300 52 150 0.0 2.0 0.00 0.00 0.00 76 1021.4
20260507062759 52 150 0.0 2.0 0.00 0.00 0.00 76 1021.4
20260507062301 52 156 0.0 1.0 0.00 0.00 0.00 76 1021.4
20260507061756 52 157 0.0 2.0 0.00 0.00 0.00 76 1021.4
20260507061256 52 157 0.0 2.0 0.00 0.00 0.00 75 1021.5
20260507060756 52 157 0.0 2.0 0.00 0.00 0.00 75 1021.5
20260507055755 53 164 0.0 2.0 0.00 0.00 0.00 75 1021.5
20260507055255 53 196 0.0 0.0 0.00 0.00 0.00 75 1021.5
20260507054756 53 201 0.0 2.0 0.00 0.00 0.00 75 1021.5
20260507054256 53 201 0.0 2.0 0.00 0.00 0.00 75 1021.5
20260507053752 53 205 0.0 2.0 0.00 0.00 0.00 75 1021.6
20260507053255 53 205 0.0 2.0 0.00 0.00 0.00 75 1021.5
20260507052750 53 150 0.0 2.0 0.00 0.00 0.00 75 1021.5
20260507052248 53 150 0.0 2.0 0.00 0.00 0.00 75 1021.5
20260507051246 53 143 0.0 3.0 0.00 0.00 0.00 75 1021.5
20260507050743 53 179 0.0 2.0 0.00 0.00 0.00 75 1021.5
20260507050242 53 180 0.0 3.0 0.00 0.00 0.00 75 1021.5
20260507045740 53 180 0.0 3.0 0.00 0.00 0.00 75 1021.5
20260507045237 53 124 0.0 2.0 0.00 0.00 0.00 75 1021.5
20260507044735 53 163 0.0 2.0 0.00 0.00 0.00 75 1021.5
20260507043735 53 163 0.0 2.0 0.00 0.00 0.00 75 1021.5
20260507043235 53 169 0.0 0.0 0.00 0.00 0.00 75 1021.5
20260507042733 54 169 0.0 1.0 0.00 0.00 0.00 75 1021.5
20260507042234 54 169 0.0 1.0 0.00 0.00 0.00 75 1021.4
20260507041734 54 169 0.0 1.0 0.00 0.00 0.00 75 1021.5
20260507041230 54 169 0.0 1.0 0.00 0.00 0.00 76 1021.4
20260507040727 54 169 1.0 4.0 0.00 0.00 0.00 76 1021.4
20260507040226 54 169 1.0 4.0 0.00 0.00 0.00 76 1021.4
20260507035724 54 148 0.0 3.0 0.00 0.00 0.00 76 1021.4
20260507035222 54 173 0.0 3.0 0.00 0.00 0.00 76 1021.3
20260507034222 55 177 0.0 0.0 0.00 0.00 0.00 76 1021.3
20260507033718 55 177 0.0 0.0 0.00 0.00 0.00 76 1021.2
20260507032718 55 177 0.0 0.0 0.00 0.00 0.00 75 1021.2
20260507031713 55 177 0.0 6.0 0.00 0.00 0.00 75 1021.1
20260507031211 55 177 0.0 6.0 0.00 0.00 0.00 75 1021.0
20260507030711 55 168 0.0 3.0 0.00 0.00 0.00 74 1021.0
20260507030212 55 109 0.0 3.0 0.00 0.00 0.00 74 1021.0
20260507025715 55 128 1.0 5.0 0.00 0.00 0.00 74 1020.9
20260507025212 55 123 1.0 5.0 0.00 0.00 0.00 74 1020.9
20260507024709 56 116 1.0 5.0 0.00 0.00 0.00 74 1020.9
20260507024209 56 115 1.0 8.0 0.00 0.00 0.00 73 1020.9
20260507023708 56 145 1.0 8.0 0.00 0.00 0.00 73 1020.8
20260507023207 56 155 1.0 3.0 0.00 0.00 0.00 72 1020.6
20260507022706 56 140 1.0 4.0 0.00 0.00 0.00 72 1020.6
20260507022203 56 93 0.0 4.0 0.00 0.00 0.00 72 1020.6
20260507021704 56 166 0.0 3.0 0.00 0.00 0.00 72 1020.6
20260507020701 56 166 0.0 2.0 0.00 0.00 0.00 73 1020.5
20260507020201 56 169 1.0 3.0 0.00 0.00 0.00 73 1020.6
20260507015155 56 157 0.0 2.0 0.00 0.00 0.00 72 1020.6
20260507014655 56 107 0.0 3.0 0.00 0.00 0.00 72 1020.8
20260507014154 56 199 0.0 3.0 0.00 0.00 0.00 72 1020.8
20260507013653 56 146 1.0 3.0 0.00 0.00 0.00 72 1020.8
20260507013150 56 134 1.0 5.0 0.00 0.00 0.00 72 1020.6
20260507012650 56 154 1.0 5.0 0.00 0.00 0.00 72 1020.6
20260507012149 57 127 1.0 4.0 0.00 0.00 0.00 72 1020.6
20260507011649 57 161 1.0 5.0 0.00 0.00 0.00 73 1020.8
20260507011149 57 138 0.0 5.0 0.00 0.00 0.00 72 1020.6
20260507010648 57 140 0.0 2.0 0.00 0.00 0.00 72 1020.8
20260507010145 57 137 1.0 4.0 0.00 0.00 0.00 72 1020.8
20260507005646 57 130 0.0 4.0 0.00 0.00 0.00 72 1020.9
20260507005145 57 165 0.0 2.0 0.00 0.00 0.00 72 1020.8
20260507004646 57 165 0.0 2.0 0.00 0.00 0.00 73 1020.9
20260507004148 57 165 0.0 2.0 0.00 0.00 0.00 73 1020.9
20260507002643 56 169 1.0 6.0 0.00 0.00 0.00 72 1020.9
20260507002141 57 179 1.0 6.0 0.00 0.00 0.00 72 1020.9
20260507001639 57 142 1.0 4.0 0.00 0.00 0.00 72 1020.8
20260507001137 56 157 0.0 3.0 0.00 0.00 0.00 72 1020.9
20260507000131 56 155 1.0 5.0 0.00 0.00 0.00 73 1020.9
20260506235631 56 193 1.0 2.0 0.00 0.00 0.00 73 1021.0
20260506235131 57 193 1.0 5.0 0.00 0.00 0.00 72 1020.9
20260506234631 57 203 1.0 5.0 0.00 0.00 0.00 72 1020.9
20260506234131 57 140 1.0 6.0 0.00 0.00 0.00 72 1020.9
20260506233627 57 192 1.0 6.0 0.00 0.00 0.00 72 1020.9
20260506233131 57 163 1.0 4.0 0.00 0.00 0.00 72 1020.9
20260506232127 57 200 0.0 3.0 0.00 0.00 0.00 72 1021.0
20260506231125 57 74 1.0 7.0 0.00 0.00 0.00 71 1021.0
20260506230125 57 143 1.0 3.0 0.00 0.00 0.00 71 1021.0
20260506225625 57 266 1.0 3.0 0.00 0.00 0.00 70 1021.1
20260506225124 58 121 0.0 3.0 0.00 0.00 0.00 70 1021.0
20260506224621 58 175 0.0 3.0 0.00 0.00 0.00 69 1021.0
20260506224121 58 180 0.0 3.0 0.00 0.00 0.00 69 1021.0
20260506223624 58 118 0.0 3.0 0.00 0.00 0.00 70 1021.1
20260506222616 58 189 1.0 3.0 0.00 0.00 0.00 68 1021.1
20260506221615 58 185 1.0 4.0 0.00 0.00 0.00 68 1021.1
20260506220614 59 196 1.0 4.0 0.00 0.00 0.00 67 1021.2
20260506220113 59 196 1.0 8.0 0.00 0.00 0.00 67 1021.2
20260506215611 59 244 1.0 8.0 0.00 0.00 0.00 66 1021.2
20260506215109 59 151 1.0 6.0 0.00 0.00 0.00 68 1021.1
20260506214609 59 177 1.0 6.0 0.00 0.00 0.00 67 1021.1
20260506214109 58 166 1.0 4.0 0.00 0.00 0.00 68 1021.2
20260506213607 58 117 1.0 3.0 0.00 0.00 0.00 69 1021.3
20260506213107 58 154 1.0 4.0 0.00 0.00 0.00 68 1021.2
20260506212607 58 304 1.0 5.0 0.00 0.00 0.00 68 1021.3
20260506212108 58 121 1.0 5.0 0.00 0.00 0.00 69 1021.3
20260506211106 58 86 1.0 4.0 0.00 0.00 0.00 68 1021.4
20260506210605 58 123 0.0 4.0 0.00 0.00 0.00 68 1021.3
20260506210059 58 130 0.0 2.0 0.00 0.00 0.00 69 1021.3
20260506205557 58 130 1.0 2.0 0.00 0.00 0.00 69 1021.3
20260506205057 58 130 1.0 3.0 0.00 0.00 0.00 69 1021.2
20260506204556 59 126 1.0 3.0 0.00 0.00 0.00 68 1021.2
20260506203555 58 247 1.0 3.0 0.00 0.00 0.00 68 1021.1
20260506203055 58 96 1.0 2.0 0.00 0.00 0.00 68 1021.2
20260506202555 58 96 1.0 2.0 0.00 0.00 0.00 69 1021.2
20260506202052 58 101 0.0 3.0 0.00 0.00 0.00 69 1021.1
20260506201551 58 101 1.0 4.0 0.00 0.00 0.00 68 1021.1
20260506201050 58 38 1.0 4.0 0.00 0.00 0.00 69 1021.1
20260506200550 58 36 0.0 3.0 0.00 0.00 0.00 68 1021.0
20260506200051 58 81 0.0 3.0 0.00 0.00 0.00 70 1021.1
20260506195549 57 167 0.0 3.0 0.00 0.00 0.00 69 1021.1
20260506195045 57 40 0.0 1.0 0.00 0.00 0.00 69 1021.0
20260506194545 57 275 0.0 0.0 0.00 0.00 0.00 69 1021.0
20260506194044 57 274 0.0 3.0 0.00 0.00 0.00 69 1021.0
20260506193545 57 272 1.0 3.0 0.00 0.00 0.00 70 1021.0
20260506193045 57 269 1.0 5.0 0.00 0.00 0.00 71 1021.0
20260506192544 57 217 1.0 5.0 0.00 0.00 0.00 69 1020.9
20260506192045 57 186 1.0 6.0 0.00 0.00 0.00 70 1020.9
20260506191046 57 145 1.0 4.0 0.00 0.00 0.00 69 1020.8
20260506190544 57 151 0.0 2.0 0.00 0.00 0.00 69 1020.8
20260506190044 56 150 0.0 3.0 0.00 0.00 0.00 70 1020.6
20260506185544 56 151 0.0 3.0 0.00 0.00 0.00 70 1020.8
20260506185046 56 246 0.0 2.0 0.00 0.00 0.00 70 1020.9
20260506184044 55 106 1.0 4.0 0.00 0.00 0.00 70 1020.8
20260506183548 55 187 1.0 4.0 0.00 0.00 0.00 71 1020.9
20260506183046 55 139 1.0 5.0 0.00 0.00 0.00 71 1020.9
20260506182544 55 161 1.0 5.0 0.00 0.00 0.00 70 1020.9
20260506182045 54 148 1.0 4.0 0.00 0.00 0.00 72 1020.9
20260506181045 54 150 1.0 5.0 0.00 0.00 0.00 72 1021.0
20260506180544 54 163 1.0 5.0 0.00 0.00 0.00 72 1020.8
20260506180042 54 118 1.0 5.0 0.00 0.00 0.00 74 1020.6
20260506175542 53 168 1.0 5.0 0.00 0.00 0.00 73 1020.4
20260506175040 53 173 0.0 1.0 0.00 0.00 0.00 74 1020.5
20260506174540 54 169 0.0 1.0 0.00 0.00 0.00 76 1020.5
20260506174040 53 159 0.0 3.0 0.00 0.00 0.00 79 1020.5
20260506173539 53 147 0.0 3.0 0.00 0.00 0.00 79 1020.5
20260506173041 53 185 0.0 3.0 0.00 0.00 0.00 81 1020.5
20260506172539 53 248 0.0 2.0 0.00 0.00 0.00 82 1020.8
20260506172036 53 218 0.0 3.0 0.00 0.00 0.00 83 1020.6
20260506171534 53 225 1.0 3.0 0.00 0.00 0.00 83 1020.6
20260506171030 53 144 1.0 3.0 0.00 0.00 0.00 83 1020.6
20260506170530 53 153 1.0 3.0 0.00 0.00 0.00 83 1020.8
20260506170031 53 145 1.0 3.0 0.00 0.00 0.00 83 1020.5
20260506165531 52 165 1.0 6.0 0.00 0.00 0.00 83 1020.6
20260506165028 52 189 1.0 6.0 0.00 0.00 0.00 83 1020.5
20260506164026 52 198 1.0 4.0 0.00 0.00 0.00 83 1020.6
20260506163526 52 170 1.0 4.0 0.00 0.00 0.00 83 1020.4
20260506163026 52 173 1.0 6.0 0.00 0.00 0.00 83 1020.4
20260506162524 52 175 0.0 6.0 0.00 0.00 0.00 83 1020.2
20260506162024 52 201 0.0 0.0 0.00 0.00 0.00 83 1020.2
20260506161524 52 202 0.0 0.0 0.00 0.00 0.00 83 1020.0
20260506161023 52 202 0.0 2.0 0.00 0.00 0.00 84 1020.0
20260506160520 52 227 1.0 4.0 0.00 0.00 0.00 84 1019.9
20260506160018 52 136 0.0 4.0 0.00 0.00 0.00 84 1019.9
20260506155517 52 166 0.0 3.0 0.00 0.00 0.00 83 1020.0
20260506155014 52 177 0.0 2.0 0.00 0.00 0.00 83 1020.1
20260506154512 52 185 0.0 2.0 0.00 0.00 0.00 83 1020.1
20260506154010 52 186 0.0 2.0 0.00 0.00 0.00 83 1020.1
20260506153510 52 185 0.0 2.0 0.00 0.00 0.00 83 1020.4
20260506153010 52 186 0.0 4.0 0.00 0.00 0.00 83 1020.4
20260506152009 52 180 1.0 3.0 0.00 0.00 0.00 83 1020.2
20260506151508 52 180 1.0 5.0 0.00 0.00 0.00 83 1020.2
20260506151006 52 179 0.0 5.0 0.00 0.00 0.00 83 1020.1
20260506150509 52 134 0.0 2.0 0.00 0.00 0.00 83 1019.9
20260506150006 52 134 0.0 3.0 0.00 0.00 0.00 83 1019.9
20260506145506 52 146 1.0 4.0 0.00 0.00 0.00 82 1019.9
20260506145005 52 159 1.0 4.0 0.00 0.00 0.00 81 1019.9
20260506144504 52 123 1.0 3.0 0.00 0.00 0.00 80 1020.1
20260506144002 52 170 1.0 3.0 0.00 0.00 0.00 80 1020.1
20260506143502 52 150 1.0 4.0 0.00 0.00 0.00 79 1020.2
20260506143003 52 173 1.0 4.0 0.00 0.00 0.00 79 1020.2
20260506142500 52 144 1.0 4.0 0.00 0.00 0.00 78 1020.0
20260506142000 52 117 1.0 4.0 0.00 0.00 0.00 78 1020.0
20260506141501 52 155 1.0 4.0 0.00 0.00 0.00 78 1019.8
20260506135954 52 91 1.0 4.0 0.00 0.00 0.00 78 1019.7
20260506135448 52 167 0.0 4.0 0.00 0.00 0.00 77 1019.9
20260506134948 52 192 0.0 3.0 0.00 0.00 0.00 76 1019.8
20260506134446 52 192 0.0 3.0 0.00 0.00 0.00 76 1019.9
20260506133946 52 188 0.0 3.0 0.00 0.00 0.00 76 1019.5
20260506133450 52 165 0.0 1.0 0.00 0.00 0.00 76 1019.7
20260506132947 52 165 0.0 3.0 0.00 0.00 0.00 76 1019.8
20260506132446 52 166 0.0 4.0 0.00 0.00 0.00 76 1019.7
20260506131447 52 136 0.0 2.0 0.00 0.00 0.00 76 1019.5
20260506130943 52 162 0.0 2.0 0.00 0.00 0.00 75 1019.6
20260506125944 52 200 1.0 4.0 0.00 0.00 0.00 75 1019.0
20260506125445 52 210 0.0 4.0 0.00 0.00 0.00 75 1019.3
20260506124945 52 121 0.0 3.0 0.00 0.00 0.00 76 1019.3
20260506124443 52 121 1.0 5.0 0.00 0.00 0.00 75 1019.2
20260506123946 52 140 1.0 5.0 0.00 0.00 0.00 75 1019.3
20260506123445 52 186 1.0 4.0 0.00 0.00 0.00 75 1019.2
20260506122943 52 136 1.0 3.0 0.00 0.00 0.00 75 1019.1
20260506122445 52 208 1.0 4.0 0.00 0.00 0.00 75 1019.1
20260506121938 52 176 1.0 4.0 0.00 0.00 0.00 75 1019.0
20260506120927 52 163 0.0 4.0 0.00 0.00 0.00 75 1019.1
20260506120428 52 181 1.0 4.0 0.00 0.00 0.00 75 1019.0
20260506115926 52 196 1.0 5.0 0.00 0.00 0.00 75 1019.0
20260506115426 52 188 1.0 5.0 0.00 0.00 0.00 75 1018.9
20260506114928 52 182 1.0 4.0 0.00 0.00 0.00 75 1018.9
20260506113926 52 153 1.0 3.0 0.00 0.00 0.00 74 1018.7
20260506113427 52 178 0.0 2.0 0.00 0.00 0.00 74 1018.8
20260506112926 52 171 1.0 4.0 0.00 0.00 0.00 74 1018.7
20260506112424 52 157 0.0 4.0 0.00 0.00 0.00 74 1018.8
20260506111422 52 202 1.0 3.0 0.00 0.00 0.00 74 1018.7
20260506110921 52 154 0.0 0.0 0.00 0.00 0.00 74 1018.8
20260506110420 52 163 0.0 0.0 0.00 0.00 0.00 74 1018.8
20260506105918 52 162 0.0 0.0 0.00 0.00 0.00 74 1018.7
20260506105417 52 229 0.0 0.0 0.00 0.00 0.00 74 1018.6
20260506104914 52 117 0.0 0.0 0.00 0.00 0.00 74 1018.6
20260506104412 52 198 0.0 5.0 0.00 0.00 0.00 74 1018.6
20260506103913 52 214 0.0 5.0 0.00 0.00 0.00 74 1018.5
20260506103410 52 172 0.0 2.0 0.00 0.00 0.00 74 1018.5
20260506102908 52 171 0.0 2.0 0.00 0.00 0.00 74 1018.4
20260506102403 52 165 0.0 4.0 0.00 0.00 0.00 74 1018.5
20260506101857 52 165 0.0 4.0 0.00 0.00 0.00 74 1018.4
20260506101353 52 166 0.0 3.0 0.00 0.00 0.00 74 1018.5
20260506100350 52 185 0.0 0.0 0.00 0.00 0.00 74 1018.3
20260506095850 52 136 0.0 0.0 0.00 0.00 0.00 74 1018.3
20260506095347 52 136 0.0 0.0 0.00 0.00 0.00 74 1018.2
20260506094846 52 136 0.0 0.0 0.00 0.00 0.00 74 1018.2
20260506094346 52 136 0.0 0.0 0.00 0.00 0.00 74 1018.2
20260506093845 52 136 0.0 0.0 0.00 0.00 0.00 74 1018.1
20260506093345 52 136 0.0 0.0 0.00 0.00 0.00 74 1018.2
20260506092844 52 161 0.0 1.0 0.00 0.00 0.00 74 1018.2
20260506092346 52 135 1.0 4.0 0.00 0.00 0.00 74 1018.1
20260506091845 52 248 1.0 4.0 0.00 0.00 0.00 74 1018.1
20260506091344 52 163 1.0 4.0 0.00 0.00 0.00 74 1018.0
20260506090842 52 138 0.0 2.0 0.00 0.00 0.00 74 1018.0
20260506090340 52 163 1.0 3.0 0.00 0.00 0.00 74 1018.0
20260506085840 52 210 1.0 5.0 0.00 0.00 0.00 74 1017.9
20260506085334 52 159 1.0 5.0 0.00 0.00 0.00 74 1017.9